This demonstration page uses our WeatherBlox Daily Observations layout. Learn more.

Hourly Observations for October 28, 2020

Temp ( °F °C ) Dew Point ( °F °C ) Humidity (%) Winds ( mph kmh ) Pressure ( in mb ) Visibility ( mi km ) Precip ( " mm )
12:53 am 00:53 Cloudy with Mist and Fog 47 8.3 46 7.8 97 97 Calm 30.15 1021 6 9.65604 0 0
1:05 am 01:05 Cloudy with Mist and Fog 47 8.3 46 7.8 97 97 S 6 9 30.15 1021 5 8.0467 0 0
1:53 am 01:53 Cloudy 49 9.4 46 7.8 90 90 Calm 30.14 1021 8 12.87472 0 0
2:53 am 02:53 Cloudy with Mist and Fog 49 9.4 47 8.3 93 93 Calm 30.14 1021 5 8.0467 0 0
3:06 am 03:06 Cloudy with Mist and Fog 48 8.9 47 8.3 96 96 WNW 5 7 30.14 1021 3 4.82802 0 0
3:16 am 03:16 Cloudy with Mist and Fog 48 8.9 47 8.3 96 96 NW 5 7 30.15 1021 2.5 4.02335 0 0
3:35 am 03:35 Cloudy with Mist and Fog 48 8.9 48 8.9 100 100 Calm 30.14 1021 1.75 2.816345 0 0
3:44 am 03:44 Cloudy with Mist and Fog 48 8.9 47 8.3 96 96 Calm 30.14 1021 2 3.21868 0 0
3:53 am 03:53 Cloudy with Mist and Fog 48 8.9 47 8.3 96 96 Calm 30.14 1021 2.5 4.02335 0 0
4:02 am 04:02 Cloudy with Mist and Fog 48 8.9 47 8.3 96 96 Calm 30.14 1021 3 4.82802 0 0
4:53 am 04:53 Cloudy with Mist and Fog 48 8.9 47 8.3 96 96 Calm 30.11 1020 5 8.0467 0 0
5:53 am 05:53 Cloudy with Mist and Fog 48 8.9 47 8.3 96 96 Calm 30.1 1019 5 8.0467 0 0
6:53 am 06:53 Cloudy with Mist and Fog 49 9.4 47 8.3 93 93 Calm 30.1 1019 5 8.0467 0 0
7:53 am 07:53 Cloudy with Mist and Fog 49 9.4 47 8.3 93 93 Calm 30.1 1019 5 8.0467 0 0
8:34 am 08:34 Cloudy with Mist and Fog 49 9.4 47 8.3 93 93 WNW 3 6 30.11 1020 5 8.0467 0 0
8:53 am 08:53 Cloudy with Mist and Fog 49 9.4 47 8.3 93 93 NNW 3 6 30.11 1020 5 8.0467 0 0
9:06 am 09:06 Cloudy with Mist and Fog 50 10 47 8.3 89 89 Calm 30.12 1020 6 9.65604 0 0
9:53 am 09:53 Cloudy 51 10.6 48 8.9 89 89 Calm 30.12 1020 7 11.26538 0 0
10:53 am 10:53 Cloudy 50 10 47 8.3 89 89 N 8 13 30.12 1020 10 16.0934 0 0
11:53 am 11:53 Cloudy 51 10.6 47 8.3 86 86 Calm 30.12 1020 10 16.0934 0 0
12:22 pm 12:22 Cloudy 51 10.6 47 8.3 86 86 Calm 30.12 1020 10 16.0934 0 0
12:53 pm 12:53 Cloudy 52 11.1 47 8.3 83 83 Calm 30.11 1020 10 16.0934 0 0
1:53 pm 13:53 Cloudy 53 11.7 47 8.3 80 80 Calm 30.1 1019 10 16.0934 0 0
2:42 pm 14:42 Cloudy 53 11.7 47 8.3 80 80 Calm 30.07 1018 10 16.0934 0 0
2:53 pm 14:53 Cloudy 53 11.7 47 8.3 80 80 Calm 30.07 1018 10 16.0934 0 0
3:53 pm 15:53 Cloudy 53 11.7 47 8.3 80 80 E 3 6 30.04 1017 10 16.0934 0 0
4:53 pm 16:53 Cloudy 53 11.7 47 8.3 80 80 E 3 6 30.04 1017 10 16.0934 0 0
5:04 pm 17:04 Cloudy 53 11.7 48 8.9 83 83 Calm 30.03 1017 10 16.0934 0 0
5:32 pm 17:32 Mostly Cloudy 53 11.7 48 8.9 83 83 Calm 30.02 1017 10 16.0934 0 0
5:45 pm 17:45 Partly Cloudy 53 11.7 47 8.3 80 80 Calm 30.02 1017 10 16.0934 0 0
5:53 pm 17:53 Partly Cloudy 54 12.2 48 8.9 80 80 Calm 30.02 1017 10 16.0934 0 0
6:04 pm 18:04 Mostly Cloudy 53 11.7 48 8.9 83 83 Calm 30.02 1017 10 16.0934 0 0
6:23 pm 18:23 Partly Cloudy 52 11.1 48 8.9 86 86 Calm 30.03 1017 10 16.0934 0 0
6:49 pm 18:49 Mostly Cloudy 52 11 48 9 88 88 NNW 5 7 30.04 1017 10 16.0934 0 0
6:53 pm 18:53 Mostly Cloudy 52 11.1 48 8.9 86 86 N 3 6 30.03 1017 10 16.0934 0 0
7:17 pm 19:17 Partly Cloudy 51 10.6 48 8.9 89 89 Calm 30.03 1017 10 16.0934 0 0
7:51 pm 19:51 Mostly Cloudy 52 11 48 9 88 88 Calm 30.02 1016 9 14.48406 0 0
7:53 pm 19:53 Mostly Cloudy 51 10.6 48 8.9 89 89 Calm 30.01 1016 9 14.48406 0 0
8:10 pm 20:10 Mostly Cloudy 51 10.6 48 8.9 89 89 Calm 30.01 1016 9 14.48406 0 0
8:53 pm 20:53 Cloudy 52 11.1 48 8.9 86 86 SE 3 6 29.99 1016 8 12.87472 0 0
9:53 pm 21:53 Cloudy with Light Rain 52 11.1 49 9.4 89 89 E 3 6 29.97 1015 10 16.0934 0.001 0.001
10:48 pm 22:48 Cloudy with Rain 52 11 50 10 94 94 Calm 29.96 1014 5 8.0467 0.08 2.032
10:53 pm 22:53 Cloudy with Light Rain 52 11.1 50 10 93 93 Calm 29.95 1014 5 8.0467 0.09 2.286
11:14 pm 23:14 Cloudy with Light Rain 52 11.1 50 10 93 93 Calm 29.94 1014 6 9.65604 0.03 0.762
11:53 pm 23:53 Cloudy with Rain 52 11.1 50 10 93 93 NE 3 6 29.93 1014 4 6.43736 0.09 2.286

Powered by AerisWeather